Location: Caltech
(34.1382°N, 118.1253°W)
Time: 03:27:40
(UTC-07:00)

Iridium 65 - Visible Passes

Search period start: 05 May 2016 00:00
Search period end: 15 May 2016 00:00
Orbit: 776 x 779 km, 86.4° (Epoch: 04 May)

Date Brightness Start Highest point End Pass type
(mag) Time Alt. Az. Time Alt. Az. Time Alt. Az.
05 May 7.9 00:42:25 10° NNW 00:43:51 18° NNW 00:43:51 18° NNW visible
06 May 7.6 00:08:30 10° N 00:10:32 24° NNW 00:10:32 24° NNW visible
06 May 7.4 23:35:00 10° N 23:37:13 25° NNE 23:37:13 25° NNE visible
07 May 7.5 23:01:53 10° NNE 23:03:54 21° NE 23:03:54 21° NE visible
08 May 8.0 00:43:01 10° NNW 00:44:22 16° NW 00:44:22 16° NW visible
08 May 7.8 22:29:27 10° NE 22:30:35 14° NE 22:30:35 14° NE visible
09 May 7.5 00:08:47 10° NNW 00:11:04 25° NNW 00:11:04 25° NNW visible
09 May 7.1 23:35:03 10° N 23:37:46 32° N 23:37:46 32° N visible
10 May 7.0 23:01:40 10° N 23:04:28 30° NNE 23:04:28 30° NNE visible
11 May 8.1 00:44:00 10° NW 00:44:56 13° NW 00:44:56 13° NW visible
11 May 7.3 22:28:46 10° NNE 22:31:10 21° NE 22:31:10 21° NE visible
12 May 7.6 00:09:13 10° NNW 00:11:39 22° NW 00:11:39 22° NW visible
12 May 7.7 21:56:52 10° NE 21:57:53 12° ENE 21:57:53 12° ENE visible
12 May 6.9 23:35:13 10° N 23:38:22 35° NNW 23:38:22 35° NNW visible
13 May 6.5 23:01:37 10° N 23:05:06 42° NNE 23:05:06 42° NNE visible
14 May 6.7 22:28:25 10° NNE 22:31:50 31° NE 22:31:50 31° NE visible
